This is the latest recevied weather packets stored in our database for station/object JS2WAD-13. If no packets are shown the sender has not sent any weather packets the latest 10 day(s).
| Time | Temp. | Humidity | Pressure | Rain* | Wind** | Luminosity | Snow |
|---|---|---|---|---|---|---|---|
| 1778142977 | 27.22° C | 49% | 900.1 hPa | 0 mm | - | 65 W/m² | - |
| 1778142677 | 27.22° C | 50% | 900.1 hPa | 0 mm | - | 49 W/m² | - |
| 1778142377 | 27.22° C | 49% | 900 hPa | 0 mm | - | 51 W/m² | - |
| 1778142077 | 27.22° C | 49% | 899.9 hPa | 0 mm | - | 72 W/m² | - |
| 1778141777 | 27.78° C | 48% | 899.9 hPa | 0 mm | - | 223 W/m² | - |
| 1778141477 | 27.78° C | 48% | 900 hPa | 0 mm | - | 285 W/m² | - |
| 1778141177 | 27.78° C | 47% | 899.9 hPa | 0 mm | - | 257 W/m² | - |
| 1778140877 | 28.33° C | 47% | 899.8 hPa | 0 mm | - | 306 W/m² | - |
| 1778140577 | 28.33° C | 46% | 900.3 hPa | 0 mm | - | 341 W/m² | - |
| 1778140277 | 28.33° C | 45% | 899.9 hPa | 0 mm | - | 323 W/m² | - |
| 1778139977 | 28.33° C | 45% | 899.8 hPa | 0 mm | - | 362 W/m² | - |
| 1778139677 | 28.33° C | 44% | 899.8 hPa | 0 mm | - | 401 W/m² | - |
| 1778139377 | 28.33° C | 45% | 899.7 hPa | 0 mm | - | 434 W/m² | - |
| 1778139077 | 28.33° C | 45% | 899.6 hPa | 0 mm | - | 452 W/m² | - |
| 1778138777 | 28.33° C | 44% | 899.7 hPa | 0 mm | - | 469 W/m² | - |
| 1778138477 | 28.33° C | 44% | 899.7 hPa | 0 mm | - | 492 W/m² | - |
| 1778138177 | 28.33° C | 44% | 899.8 hPa | 0 mm | - | 497 W/m² | - |
| 1778137877 | 28.33° C | 44% | 899.9 hPa | 0 mm | - | 522 W/m² | - |
| 1778137577 | 28.33° C | 44% | 900 hPa | 0 mm | - | 545 W/m² | - |
| 1778137277 | 28.33° C | 44% | 900 hPa | 0 mm | - | 561 W/m² | - |
| 1778136977 | 28.33° C | 45% | 900 hPa | 0 mm | - | 568 W/m² | - |
| 1778136677 | 28.33° C | 44% | 900 hPa | 0 mm | - | 577 W/m² | - |
| 1778136377 | 28.33° C | 44% | 900.2 hPa | 0 mm | - | 401 W/m² | - |
| 1778136077 | 28.33° C | 44% | 900.1 hPa | 0 mm | - | 114 W/m² | - |
| 1778135777 | 28.33° C | 45% | 900.2 hPa | 0 mm | - | 90 W/m² | - |
* Rain latest hour (hover to see other rain measurements)
** Current wind speed in m/s (hover to see current wind gust speed)